www.pogodaiklimat.ru

Погода и климат >> Архив погоды >> Россия >> Коми >> Ижма


ПОГОДА в Ижме

  • Прогноз погоды в Ижме
  • Монитор погоды в Ижме

АРХИВ ПОГОДЫ в Ижме

Время (UTC), дата Ветер
(напр.,м/с)
 
Видим.   Явления Облачность Т
(С)
Тd
(С)
f
(%)
Тe
(С)
Тes
(С)
Комфортность P
(гПа)
Po
(гПа)
Тmin
(С)
Tmax
(С)
R
(мм)
R24
(мм)
S
(см)
09 17.04 З 2 20 км 4/0
[Ac lent Cc]
-1.1 -14.9 34 -4 +2 1031.3 1026.2
12 17.04 З 2 20 км 10/10 1080 м
[Sc]
+0.5 -8.9 49 -2 -2 1029.1 1024.0
15 17.04 З 2 20 км 10/4 1000 м
[Sc Ac trans Cs]
+0.2 -6.6 60 -3 -3 1026.6 1021.5 +0.7
18 17.04 З 2 20 км слаб. снег 10/5 600 м
[Sc As op]
-1.1 -4.2 79 -5 -5 1025.2 1020.1
21 17.04 З 2 20 км {снег} 10/0
[Cs]
-1.8 -3.7 87 -6 -6 1023.4 1018.3
00 18.04 З 2 20 км слаб. снег 10/0
[As op]
-1.4 -2.8 90 -5 -5 1021.9 1016.8
03 18.04 З 2 20 км {снег} 10/10 400 м
[Sc]
-0.6 -3.1 83 -4 -4 1021.0 1015.9 -2.0 0.2 70
06 18.04 З 2 20 км слаб. ливневой снег 10/10 360 м
[Cb cap]
+0.5 -2.0 83 -3 -3 1020.6 1015.6
09 18.04 З 3 20 км {ливн. осадки} 10/10 480 м
[Cb cap]
+2.5 -0.9 78 -2 -2 1021.7 1016.7
12 18.04 СЗ 3 20 км {ливн. осадки} 10/6 1000 м
[Cb cap Ac und]
+3.2 -0.7 76 -1 -0 1022.7 1017.7
15 18.04 З 3 20 км {ливн. осадки} 10/6 1000 м
[Cb cap Ac und]
+1.9 -0.2 86 -2 -2 1022.9 1017.8 +3.6 0.4
18 18.04 СЗ 3 20 км {ливн. осадки} 10/10 1230 м
[Cb cap]
+1.7 -2.1 76 -2 -2 1022.6 1017.5
21 18.04 З 3 20 км 10/10 750 м
[Sc]
+0.7 -2.1 82 -4 -4 1021.7 1016.6
00 19.04 СЗ 3 20 км 10/10 270 м
[Frnb]
+0.8 0.0 94 -4 -4 1020.8 1015.7
03 19.04 СЗ 2 20 км 10/8 240 м
[Frnb As op]
+0.9 -0.1 93 -3 -3 1020.7 1015.6 +0.6 68
06 19.04 СЗ 3 20 км {снег} 10/10 240 м
[Frnb]
+1.9 +0.5 90 -2 -2 1021.1 1016.1
09 19.04 СЗ 3 20 км 10/10 420 м
[Sc]
+3.2 +0.8 84 -1 -1 1021.5 1016.5
12 19.04 СЗ 4 20 км {дождь} 10/10 500 м
[Sc]
+3.0 0.0 81 -2 -2 1022.1 1017.0
15 19.04 СЗ 3 20 км слаб. дождь 10/10 240 м
[Frnb]
+1.9 +0.4 90 -2 -2 1022.2 1017.2 +3.5 0.0
18 19.04 СЗ 1 20 км {дождь} 10/10 270 м
[Frnb]
+1.4 +0.3 92 -1 -1 1022.5 1017.4
21 19.04 СЗ 2 20 км 10/10 300 м
[Frnb]
+1.3 +0.1 92 -2 -2 1022.9 1017.8
00 20.04 СЗ 1 20 км 10/10 420 м
[Frnb]
+1.2 0.0 92 -1 -1 1023.1 1018.0
03 20.04 СЗ 2 20 км 10/10 630 м
[Sc]
+1.3 -0.5 88 -2 -2 1023.8 1018.7 +1.0 0.0 64
06 20.04 СЗ 2 20 км 10/3 600 м
[Sc Ac As]
+2.8 -1.3 74 -0 +1 1023.9 1018.9
09 20.04 СЗ 3 20 км 10/4 600 м
[Sc As op]
+3.8 -2.3 64 0 +1 1024.2 1019.2
12 20.04 З 2 20 км 10/0
[Ac As]
+3.6 -2.6 64 +1 +2 1024.0 1019.0
15 20.04 СЗ 4 20 км 10/10 1080 м
[Sc]
+2.7 -3.5 64 -2 -2 1023.1 1018.0 +3.9
18 20.04 З 2 20 км 10/10 1140 м
[Sc]
+1.6 -3.2 70 -1 -1 1021.6 1016.6
21 20.04 З 2 20 км 10/10 1200 м
[Sc]
+1.6 -3.4 69 -1 -1 1019.7 1014.7
00 21.04 ЮЗ 1 20 км 10/10 960 м
[Sc]
+2.0 -2.6 72 +1 +1 1017.2 1012.2
03 21.04 З 3 20 км {дождь} 10/10 540 м
[Sc]
+2.4 -1.8 74 -2 -2 1016.2 1011.2 +1.6 0.0 64
06 21.04 З 3 20 км {дождь} 10/10 400 м
[Sc]
+2.6 -0.1 82 -1 -1 1016.6 1011.6
09 21.04 З 3 20 км 10/10 540 м
[Sc]
+4.2 -0.1 74 +1 +1 1017.1 1012.1
12 21.04 З 1 20 км 10/10 720 м
[Sc]
+4.8 +0.1 72 +4 +4 1017.0 1012.0
15 21.04 Ю 1 20 км 10/5 1000 м
[Sc Ac und]
+4.7 -0.4 69 +4 +4 1016.2 1011.2 +5.8
18 21.04 ЮЗ 2 20 км 10/0
[Ac und]
+3.9 -0.8 71 +1 +1 1015.6 1010.6
21 21.04 Ю 2 20 км в посл. час дождь 10/0
[Ac As]
+4.8 -0.9 67 +2 +2 1014.4 1009.5
00 22.04 Ю 2 20 км {дождь} 10/0
[Ac As]
+4.2 -2.1 64 +2 +2 1013.1 1008.1
03 22.04 ЮЗ 2 20 км 10/0
[As op]
+5.6 -3.3 53 +4 +4 1011.5 1006.6 +3.5 0.0 62
06 22.04 З 2 20 км слаб. дождь 10/0
[Ac As]
+5.0 +0.6 73 +3 +5 1010.2 1005.3
09 22.04 З 3 20 км слаб. дождь 10/8 480 м
[Sc Ac und]
+4.5 +1.2 79 +1 +1 1010.0 1005.1
12 22.04 З 3 20 км {дождь} 10/10 630 м
[Sc]
+4.8 +0.3 73 +2 +2 1010.5 1005.6
15 22.04 З 2 20 км слаб. дождь 10/10 750 м
[Sc]
+3.9 +0.7 80 +1 +1 1011.0 1006.1 +6.0 0.6
18 22.04 З 2 20 км {дождь} 10/4 1000 м
[Sc Ac und]
+3.0 0.0 81 0 0 1011.2 1006.2
21 22.04 СЗ 3 20 км 10/10 540 м
[Sc]
+2.8 -0.3 80 -1 -1 1011.4 1006.5
00 23.04 СЗ 4
{10}
20 км 10/10 400 м
[Sc]
+1.8 -0.3 86 -3 -3 1013.5 1008.5
03 23.04 С 3 20 км {снег} 10/10 1000 м
[Sc]
+0.2 -4.8 69 -4 -4 1016.7 1011.7 +0.1 0.3 57
06 23.04 С 2 20 км {снег} 10/10 900 м
[Sc]
+0.9 -5.1 64 -2 -2 1017.5 1012.5
09 23.04 СЗ 1 20 км 10/8 930 м
[Sc Ac As]
+3.0 -6.3 50 +2 +3 1017.2 1012.2
12 23.04 штиль 0 20 км в посл. час снег 10/0
[As op]
+2.9 -3.2 64 +2 +4 1016.2 1011.2
15 23.04 ЮВ 2 20 км слаб. снег 10/8 270 м
[Frnb As op]
+1.0 -0.0 93 -3 -3 1014.2 1009.2 +3.8 0.4
18 23.04 Ю 2 20 км слаб. снег 10/10 360 м
[Frnb Ns]
+0.8 +0.1 95 -3 -3 1012.3 1007.2
21 23.04 ЮВ 2 10 км слаб. дождь 10/10 300 м
[Frnb Ns]
+1.1 +0.5 96 -3 -3 1010.5 1005.5
00 24.04 штиль 0 20 км в посл. час дождь 10/10 210 м
[Frnb Ns]
+1.0 +0.4 96 -0 -0 1009.8 1004.8
03 24.04 СЗ 1 1000 м слаб. морось 10/8 100 м
[St As op]
+0.9 +0.4 96 -1 -1 1010.5 1005.5 +0.6 2 55
06 24.04 С 2 20 км слаб. дождь {морось} 10/8 210 м
[St As op]
+2.1 +1.0 92 -1 -1 1011.3 1006.3

 

Местоположение метеостанции Ижма (Коми, Россия): широта 65.00 долгота 53.92 высота над уровнем моря 40 м.

В архиве по умолчанию представлена погода в Ижме за последнюю неделю. Архивные данные за месяц целиком и за предыдущие месяцы, начиная с января 2011 года, Вы можете получить, выбрав интересующий диапазон дат из раскрывающегося списка и нажав кнопку "Ввод!".


*Определитесь, кто Вы:
робот инопланетянин человек

Внимание! Время в таблицах - всемирное. Для получения местного времени необходимо прибавить поправку, которая равна 3 ч.

Смотрите также архив погоды в соседних городах и на ближайших метеорологических станциях:

Погода в Ираеле (Коми, Россия) (88 км)
Погода в Кедва-Воме (Коми, Россия) (88 км)
Погода в Усть-Цильме (Коми, Россия) (91 км)
Погода в Мутном Материке (Коми, Россия) (120 км)
Погода в Печоре (Коми, Россия) (150 км)
Погода в Окуневом Носу (Коми, Россия) (152 км)
Погода в Ухте (Коми, Россия) (161 км)
Погода в Усть-Усе (Коми, Россия) (175 км)
Погода в Усть-Щугоре (Коми, Россия) (194 км)
Погода в Усинске (Коми, Россия) (196 км)

Пояснения к столбцам:

Ветер - указаны скорость ветра в м/с - средняя за 10 мин, порывы в срок и между сроками (в фигурных скобках) и направление, откуда дует ветер: С - северный, СВ - северо-восточный, В - восточный, ЮВ - юго-восточный, Ю - южный, ЮЗ - юго-западный, З - западный, СЗ - северо-западный.
Видимость - горизонтальная дальность видимости в метрах или километрах. При видимости от 1 до 10 км при отсутствии осадков обычно наблюдается дымка, при ухудшении видимости до 1 км и менее - туман. В сухую погоду видимость может ухудшаться дымом, пылью или мглою.
Явления - указаны атмосферные явления, наблюдавшиеся в срок или в последний час перед сроком; фигурными скобками обозначены явления, наблюдавшиеся между сроками (за 1-3 часа до срока); квадратными скобками обозначены град или гололедные отложения с указанием их диаметра в мм.
Облачность - указаны через наклонную черту общая и нижняя облачность в баллах и высота нижней границы облаков в метрах; квадратными скобками обозначены формы облаков: Ci - перистые, Cs - перисто-слоистые, Cc - перисто-кучевые, Ac - высококучевые, As - высокослоистые, Sc - слоисто-кучевые, Ns - слоисто-дождевые, Cu - кучевые, Cb - кучево-дождевые. Подробнее классификацию облаков см. в Атласе облаков (PDF).
T - Температура воздуха - температура, измеренная на высоте 2 м над землей.
Td - Температура точки росы - температура, при понижении до которой содержащийся в воздухе водяной пар достигнет насыщения.
f - Относительная влажность воздуха - влажноcть воздуха, измеренная на высоте 2 м над землей.
Te - Эффективная температура - температура, которую ощущает одетый по сезону человек в тени. Характеристика душности погоды. При расчете учитывается влияние влажности воздуха и скорости ветра на теплоощущения человека.
Tes - Эффективная температура на солнце - температура, которую ощущает человек, с поправкой на солнечный нагрев. Характеристика знойности погоды. Зависит от высоты солнца над горизонтом, облачности и скорости ветра. Ночью, в пасмурную погоду, а также при ветре 12 м/с и более поправка равна нулю.
P - Атмосферное давление - приведенное к уровню моря атмосферное давление.
Po - Атмосферное давление - измеренное на уровне метеостанции атмосферное давление.
Tmin - Минимальная температура - минимум температуры воздуха на высоте 2 м над землей.
Tmax - Максимальная температура - максимум температуры воздуха на высоте 2 м над землей.
R - Количество осадков - Количество выпавших осадков за период времени, мм. При наведении курсора мыши на число - период времени, за который выпало указанное количество осадков.
R24 - Количество осадков - Количество выпавших осадков за 24 часа, мм.
S - Снежный покров - Высота снежного покрова, см. При наведении курсора мыши на число - состояние снежного покрова и степень покрытия местности в баллах.